Weather History for KLGA - July, 2013

Change the Weather History Date:

Tuesday, July 9, 2013

  Actual Average Record
Temperature  
Mean Temperature 84 °F 77 °F  
Max Temperature 90 °F 85 °F 98 °F (1993)
Min Temperature 77 °F 69 °F 57 °F (1963)
Degree Days  
Heating Degree Days 0 0  
Month to date heating degree days 0 0  
Since 1 June heating degree days 4 16  
Since 1 July heating degree days 0 0  
Cooling Degree Days 19 12  
Month to date cooling degree days 161 105  
Year to date cooling degree days 530 402  
Since 1 June cooling degree days 442 336  
Growing Degree Days 34 (Base 50)    
Moisture  
Dew Point 66 °F    
Average Humidity 54    
Maximum Humidity 64    
Minimum Humidity 44    
Precipitation  
Precipitation 0.06 in 0.14 in 1.38 in (1952)
Month to date precipitation 1.81 1.15  
Year to date precipitation 24.38 22.78  
Snow  
Snow 0.00 in 0.00 in - ()
Month to date snowfall 0.0 0.0  
Since 1 July snowfall 0.0 0.0  
Snow Depth 0.00 in    
Sea Level Pressure  
Sea Level Pressure 30.03 in    
Wind  
Wind Speed 7 mph (SW)    
Max Wind Speed 30 mph    
Max Gust Speed 37 mph    
Visibility 10 miles    
Events Rain , Thunderstorm    
T = Trace of Precipitation, MM = Missing Value Source: NWS Daily Summary

Daily Weather History Graph

Daily Weather History Graph

Search for Another Location

Airport or City:

Trip Planner

Search our weather history database for the weather conditions in past years. The results will help you decide how hot, cold, wet, or windy it might be!

Date:

Astronomy

Jul. 09, 2013 Rise Set
Actual Time 5:32 AM EDT 8:28 PM EDT
Civil Twilight 4:59 AM EDT 9:01 PM EDT
Nautical Twilight 4:18 AM EDT 9:42 PM EDT
Astronomical Twilight 3:30 AM EDT 10:30 PM EDT
Moon 6:55 AM EDT (7/9) 9:03 PM EDT (7/9)
Length of Visible Light 16h 01m
Length of Day
14h 55m
New Moon, 2% of the Moon is Illuminated
Jul 9
New Moon
Jul 15
First Quarter
Jul 22
Full
Jul 29
Last Quarter
Aug 6
New

Hourly Weather History & Observations

Time (EDT) Temp. Heat Index Dew Point Humidity Pressure Visibility Wind Dir Wind Speed Gust Speed Precip Events Conditions
12:51 AM 80.1 °F 81.7 °F 64.0 °F 58% 30.03 in 10.0 mi WSW 5.8 mph - N/A   Mostly Cloudy
1:51 AM 80.1 °F 81.5 °F 63.0 °F 56% 30.03 in 10.0 mi WSW 6.9 mph - N/A   Scattered Clouds
2:51 AM 79.0 °F - 64.0 °F 60% 30.03 in 10.0 mi SW 4.6 mph - N/A   Scattered Clouds
3:51 AM 78.1 °F - 64.0 °F 62% 30.03 in 10.0 mi Calm Calm - N/A   Scattered Clouds
4:51 AM 77.0 °F - 64.9 °F 66% 30.04 in 10.0 mi SW 6.9 mph - N/A   Scattered Clouds
5:51 AM 78.1 °F - 64.0 °F 62% 30.05 in 10.0 mi SSW 4.6 mph - N/A   Scattered Clouds
6:51 AM 78.1 °F - 64.9 °F 64% 30.06 in 10.0 mi SSW 5.8 mph - N/A   Scattered Clouds
7:51 AM 78.1 °F - 64.9 °F 64% 30.07 in 10.0 mi Calm Calm - N/A   Mostly Cloudy
8:51 AM 81.0 °F 82.7 °F 64.9 °F 58% 30.06 in 9.0 mi Calm Calm - N/A   Scattered Clouds
9:51 AM 84.0 °F 86.3 °F 66.0 °F 55% 30.06 in 9.0 mi Calm Calm - N/A   Scattered Clouds
10:51 AM 82.9 °F 84.6 °F 64.9 °F 54% 30.05 in 10.0 mi NNW 4.6 mph - N/A   Mostly Cloudy
11:51 AM 87.1 °F 88.9 °F 64.9 °F 48% 30.05 in 10.0 mi SW 9.2 mph - N/A   Mostly Cloudy
12:51 PM 90.0 °F 91.7 °F 64.9 °F 43% 30.04 in 10.0 mi SW 12.7 mph 16.1 mph N/A   Mostly Cloudy
1:51 PM 87.1 °F 90.6 °F 68.0 °F 53% 30.03 in 10.0 mi South 15.0 mph 24.2 mph N/A   Mostly Cloudy
2:51 PM 88.0 °F 92.1 °F 69.1 °F 53% 30.01 in 10.0 mi SSE 15.0 mph 19.6 mph N/A   Mostly Cloudy
3:51 PM 82.9 °F 85.4 °F 66.9 °F 58% 30.00 in 6.0 mi Calm Calm - 0.06 in Rain Light Rain
4:51 PM 84.0 °F 87.0 °F 68.0 °F 58% 30.01 in 9.0 mi WSW 8.1 mph 29.9 mph 0.00 in Rain Light Rain
5:51 PM 87.1 °F 88.9 °F 64.9 °F 48% 29.99 in 10.0 mi SSW 10.4 mph - 0.00 in   Mostly Cloudy
6:51 PM 87.1 °F 89.9 °F 66.9 °F 51% 29.98 in 9.0 mi South 10.4 mph - N/A   Mostly Cloudy
7:51 PM 87.1 °F 89.9 °F 66.9 °F 51% 29.99 in 10.0 mi SSW 9.2 mph - N/A   Mostly Cloudy
8:51 PM 84.9 °F 88.8 °F 69.1 °F 59% 29.99 in 10.0 mi South 10.4 mph - N/A   Mostly Cloudy
9:07 PM 84.2 °F 88.4 °F 69.8 °F 62% 30.00 in 10.0 mi SSW 10.4 mph - N/A Thunderstorm Thunderstorm
9:51 PM 82.0 °F 84.5 °F 66.9 °F 60% 30.02 in 10.0 mi WSW 9.2 mph - 0.00 in Thunderstorm Thunderstorm
10:32 PM 82.4 °F 84.6 °F 66.2 °F 58% 30.02 in 10.0 mi SW 6.9 mph - N/A   Mostly Cloudy
10:51 PM 82.0 °F 83.8 °F 64.9 °F 56% 30.03 in 10.0 mi SW 8.1 mph - N/A   Overcast
11:51 PM 82.0 °F 84.1 °F 66.0 °F 58% 30.02 in 10.0 mi SW 5.8 mph - N/A   Overcast